Location: St. Louis
(38.6270°N, 90.1994°W)
Time: 12:59:16
(UTC-06:00)

Transit 4A - Pass Details

Date: 05 December 2021
Orbit: 864 x 980 km, 66.8° (Epoch: 16 January)

Event Time Altitude Azimuth Distance (km) Brightness Sun altitude
Rises 02:29:55 0° 342° (NNW) 3,610 - -52.6°
Reaches altitude 10° 02:33:10 10° 358° (N) 2,683 - -52.0°
Maximum altitude 02:37:45 21° 46° (NE) 2,035 - -51.1°
Exits shadow 02:42:10 11° 91° (E) 2,664 10.7 -50.3°
Drops below altitude 10° 02:42:22 10° 93° (E) 2,717 10.8 -50.2°
Sets 02:45:40 0° 109° (ESE) 3,670 11.5 -49.6°
